Regional Weather Roundup
Issued by NWS Kansas City/Pleasant Hill, MO

Home | Current Version | Previous Version | Graphics & Text | Print | Product List | Glossary Off
Versions: 1 2 3 4 5 6 7 8 9 10 11 12 13 14 15 16 17 18 19 20 21 22 23 24 25 26 27 28 29 30 31 32 33 34 35 36 37 38 39 40 41 42 43 44 45 46 47 48 49 50

000
ASUS43 KEAX 040011
RWREAX

WEATHER ROUNDUP FOR EASTERN KANSAS AND NORTHWEST MISSOURI
NATIONAL WEATHER SERVICE KANSAS CITY/PLEASANT HILL MO
600 PM CST TUE MAR 03 2015

KSZ040-057-103>105-MOZ028-029-037-043-040100-
...KANSAS CITY METROPOLITAN AREA...

CITY           SKY/WX    TMP DP  RH WIND       PRES   REMARKS
K.C. INTL      CLOUDY    38  28  67 N14       29.91R WCI  30
6HR MIN TEMP:  38; 6HR MAX TEMP:  46;

K.C. DOWNTOWN  CLOUDY    41  28  60 N8        29.90R
6HR MIN TEMP:  41; 6HR MAX TEMP:  49;

LEES SUMMIT    CLOUDY    38  29  70 N9        29.90R WCI  31
6HR MIN TEMP:  38; 6HR MAX TEMP:  47;

OLATHE - IXD   CLOUDY    38  29  70 N7        29.89F WCI  33
6HR MIN TEMP:  38; 6HR MAX TEMP:  47;

OLATHE - OJC   CLOUDY    40  28  62 N6        29.88R
6HR MIN TEMP:  40; 6HR MAX TEMP:  47;

LAWRENCE       CLOUDY    40  27  59 N10       29.91R WCI  33

$$

MOZ001>008-011>017-020>025-030>033-038>040-044>046-053-054-040100-
...NORTHERN AND CENTRAL MISSOURI...

CITY           SKY/WX    TMP DP  RH WIND       PRES   REMARKS
ST. JOSEPH     CLOUDY    35  25  66 N15       29.93R WCI  25
6HR MIN TEMP:  35; 6HR MAX TEMP:  42;

MOSBY          CLOUDY    37  28  70 N12       29.91R WCI  30
WARRENSBURG    CLOUDY    37  32  81 NW9       29.89R WCI  31
WHITEMAN AFB   CLOUDY    38  34  85 N3        29.88S
6HR MIN TEMP:  38; 6HR MAX TEMP:  43;

CLINTON        CLOUDY    39  36  87 N8        29.92R WCI  34
SEDALIA        CLOUDY    39  34  82 NW10      29.90R HAZE    WCI  32
6HR MIN TEMP:  39; 6HR MAX TEMP:  44; 6HR PCP: TRACE;

WARSAW         NOT AVBL
MARSHALL       CLOUDY    41  37  87 NW6       29.86  FOG
CHILLICOTHE      N/A     37  28  70 NW5       29.92R WCI  33
6HR MIN TEMP:  37; 6HR MAX TEMP:  44;

KIRKSVILLE     NOT AVBL

$$

MOZ041-047>049-056>058-063>065-088>090-097-040100-
...EASTERN AND SOUTHERN MISSOURI...

CITY           SKY/WX    TMP DP  RH WIND       PRES   REMARKS
ST. LOUIS INTL CLOUDY    43  38  82 W5        29.84R
6HR MIN TEMP:  43; 6HR MAX TEMP:  48; 6HR PCP: TRACE;

SPIRIT OF STL  CLOUDY    43  39  86 CALM      29.85R
COLUMBIA       LGT RAIN  39  38  96 NW10      29.87R FOG     WCI  32
JEFFERSON CITY CLOUDY    46  39  76 W8        29.87R
HANNIBAL       CLOUDY    37  36  93 NW6       29.85R WCI  33
ROLLA          LGT RAIN  43  39  86 W10       29.85R
OSAGE BEACH    CLOUDY    46  39  76 CALM      29.86R
SPRINGFIELD    CLOUDY    44  40  85 NW8       29.84S
BRANSON        CLOUDY    50  48  93 NW6       29.86R
NEVADA         LGT RAIN  43  41  93 NW15      29.90R
JOPLIN         CLOUDY    46  43  89 CALM      29.87R
WEST PLAINS    LGT RAIN  48  46  93 CALM      29.84R VSB 1/4

$$

IAZ060-094-KSZ022-034>040-054-083-096-NEZ052-066-093-040100-
...KANSAS...SOUTHEAST NEBRASKA AND IOWA...

CITY           SKY/WX    TMP DP  RH WIND       PRES   REMARKS
TOPEKA         CLOUDY    38  26  62 N14       29.93R WCI  30
6HR MIN TEMP:  38; 6HR MAX TEMP:  46;

MANHATTAN      CLOUDY    37  21  52 N6        29.95R WCI  32
EMPORIA        CLOUDY    41  28  60 N7        29.89R
CHANUTE        CLOUDY    44  36  73 NE9       29.86R
WICHITA        CLOUDY    43  28  55 N12       29.88R
OMAHA          CLOUDY    28  11  48 N16       29.99R WCI  16
LINCOLN        CLOUDY    30   5  34 N20       29.99R WCI  17
FALLS CITY     MOCLDY    34  19  54 N10G20    29.93R WCI  26
LAMONI         CLOUDY    32  26  78 NW16G23   29.88R WCI  21
DES MOINES     CLOUDY    29  19  66 N20G30    29.90R WCI  16

$$



USA.gov is the U.S. government's official web portal to all federal, state and local government web resources and services.